Time,TemperatureF,DewpointF,PressureIn,WindDirection,WindDirectionDegrees,WindSpeedMPH,WindSpeedGustMPH,Humidity,HourlyPrecipIn,Conditions,Clouds,dailyrainin,SoftwareType,DateUTC
2013-02-28 00:00:00,64.4,63.5,29.97,WNW,295,4.0,4.0,97,0.00,,,0.00,Wunderground v.1.15,2013-02-28 05:00:00,
2013-02-28 00:10:00,64.4,63.5,29.96,WNW,290,3.0,3.0,97,0.00,,,0.00,Wunderground v.1.15,2013-02-28 05:10:00,
2013-02-28 00:20:00,64.4,63.5,29.96,West,270,3.0,6.0,97,0.00,,,0.00,Wunderground v.1.15,2013-02-28 05:20:00,
2013-02-28 00:30:00,64.3,63.4,29.95,WSW,252,2.0,2.0,97,0.00,,,0.00,Wunderground v.1.15,2013-02-28 05:30:00,
2013-02-28 00:40:00,64.2,63.3,29.96,West,259,2.0,3.0,97,0.00,,,0.00,Wunderground v.1.15,2013-02-28 05:40:00,
2013-02-28 00:50:00,64.1,63.2,29.95,West,273,3.0,5.0,97,0.00,,,0.00,Wunderground v.1.15,2013-02-28 05:50:00,
2013-02-28 01:00:00,64.0,63.1,29.96,West,260,3.0,3.0,97,0.00,,,0.00,Wunderground v.1.15,2013-02-28 06:00:00,
2013-02-28 01:10:00,64.1,63.2,29.95,West,273,3.0,5.0,97,0.00,,,0.00,Wunderground v.1.15,2013-02-28 06:10:00,
2013-02-28 01:20:00,64.0,63.1,29.95,WSW,238,3.0,5.0,97,0.00,,,0.00,Wunderground v.1.15,2013-02-28 06:20:00,
2013-02-28 01:30:00,64.0,62.8,29.94,WSW,253,4.0,4.0,96,0.00,,,0.00,Wunderground v.1.15,2013-02-28 06:30:00,
2013-02-28 01:40:00,63.9,62.7,29.94,WNW,292,2.0,6.0,96,0.00,,,0.00,Wunderground v.1.15,2013-02-28 06:40:00,
2013-02-28 01:50:00,63.9,62.7,29.93,WSW,246,3.0,3.0,96,0.00,,,0.00,Wunderground v.1.15,2013-02-28 06:50:00,
2013-02-28 02:00:00,63.8,62.6,29.92,West,266,2.0,2.0,96,0.00,,,0.00,Wunderground v.1.15,2013-02-28 07:00:00,
2013-02-28 02:10:00,63.9,62.7,29.93,WNW,297,3.0,3.0,96,0.00,,,0.00,Wunderground v.1.15,2013-02-28 07:10:00,
2013-02-28 02:20:00,63.8,62.6,29.92,NW,316,4.0,4.0,96,0.00,,,0.00,Wunderground v.1.15,2013-02-28 07:20:00,
2013-02-28 02:30:00,63.7,62.5,29.92,NW,306,3.0,3.0,96,0.00,,,0.00,Wunderground v.1.15,2013-02-28 07:30:00,
2013-02-28 02:40:00,63.7,62.5,29.92,West,278,4.0,4.0,96,0.00,,,0.00,Wunderground v.1.15,2013-02-28 07:40:00,
2013-02-28 02:50:00,63.6,62.4,29.93,West,274,3.0,3.0,96,0.00,,,0.00,Wunderground v.1.15,2013-02-28 07:50:00,
2013-02-28 03:00:00,63.3,61.8,29.94,NW,308,3.0,5.0,95,0.00,,,0.00,Wunderground v.1.15,2013-02-28 08:00:00,
2013-02-28 03:10:00,63.0,61.5,29.94,WNW,290,4.0,5.0,95,0.00,,,0.00,Wunderground v.1.15,2013-02-28 08:10:00,
2013-02-28 03:20:00,62.9,61.4,29.94,WNW,290,4.0,4.0,95,0.00,,,0.00,Wunderground v.1.15,2013-02-28 08:20:00,
2013-02-28 03:30:00,62.7,60.9,29.93,SW,221,5.0,5.0,94,0.00,,,0.00,Wunderground v.1.15,2013-02-28 08:30:00,
2013-02-28 03:40:00,62.6,60.8,29.94,WNW,293,4.0,6.0,94,0.00,,,0.00,Wunderground v.1.15,2013-02-28 08:40:00,
2013-02-28 03:50:00,62.4,60.7,29.94,NW,306,6.0,6.0,94,0.00,,,0.00,Wunderground v.1.15,2013-02-28 08:50:00,
2013-02-28 04:00:00,62.2,60.2,29.93,NW,318,6.0,7.0,93,0.00,,,0.00,Wunderground v.1.15,2013-02-28 09:00:00,
2013-02-28 04:10:00,61.8,59.5,29.94,NW,307,7.0,7.0,92,0.00,,,0.00,Wunderground v.1.15,2013-02-28 09:10:00,
2013-02-28 04:20:00,61.4,58.7,29.94,NW,306,6.0,6.0,91,0.00,,,0.00,Wunderground v.1.15,2013-02-28 09:20:00,
2013-02-28 04:30:00,61.0,58.0,29.95,NNW,336,5.0,8.0,90,0.00,,,0.00,Wunderground v.1.15,2013-02-28 09:30:00,
2013-02-28 04:40:00,60.5,56.9,29.95,NW,306,5.0,8.0,88,0.00,,,0.00,Wunderground v.1.15,2013-02-28 09:40:00,
2013-02-28 04:50:00,60.2,56.0,29.95,NNE,18,7.0,11.0,86,0.00,,,0.00,Wunderground v.1.15,2013-02-28 09:50:00,
2013-02-28 05:00:00,60.1,55.9,29.95,NNW,332,8.0,8.0,86,0.00,,,0.00,Wunderground v.1.15,2013-02-28 10:00:00,
2013-02-28 05:10:00,59.9,55.4,29.96,NNW,338,6.0,6.0,85,0.00,,,0.00,Wunderground v.1.15,2013-02-28 10:10:00,
2013-02-28 05:20:00,59.8,55.0,29.95,NW,321,6.0,6.0,84,0.00,,,0.00,Wunderground v.1.15,2013-02-28 10:20:00,
2013-02-28 05:30:00,59.7,55.2,29.95,NW,316,6.0,6.0,85,0.00,,,0.00,Wunderground v.1.15,2013-02-28 10:30:00,
2013-02-28 05:40:00,59.4,54.9,29.95,NNW,345,4.0,4.0,85,0.00,,,0.00,Wunderground v.1.15,2013-02-28 10:40:00,
2013-02-28 05:50:00,59.1,53.9,29.96,NNW,340,6.0,6.0,83,0.00,,,0.00,Wunderground v.1.15,2013-02-28 10:50:00,
2013-02-28 06:00:00,58.9,53.1,29.96,NW,322,5.0,5.0,81,0.00,,,0.00,Wunderground v.1.15,2013-02-28 11:00:00,
2013-02-28 06:10:00,59.1,52.9,29.97,NNW,331,5.0,5.0,80,0.00,,,0.00,Wunderground v.1.15,2013-02-28 11:10:00,
2013-02-28 06:20:00,59.1,52.2,29.98,WNW,296,5.0,5.0,78,0.00,,,0.00,Wunderground v.1.15,2013-02-28 11:20:00,
2013-02-28 06:30:00,59.1,52.2,29.97,NW,311,4.0,4.0,78,0.00,,,0.00,Wunderground v.1.15,2013-02-28 11:30:00,
2013-02-28 06:40:00,59.1,51.9,29.98,NNW,339,5.0,5.0,77,0.00,,,0.00,Wunderground v.1.15,2013-02-28 11:40:00,
2013-02-28 06:50:00,59.1,51.9,29.98,NW,314,4.0,6.0,77,0.00,,,0.00,Wunderground v.1.15,2013-02-28 11:50:00,
2013-02-28 07:00:00,59.1,51.9,29.99,NW,307,5.0,5.0,77,0.00,,,0.00,Wunderground v.1.15,2013-02-28 12:00:00,
2013-02-28 07:10:00,59.1,52.2,29.99,NW,307,4.0,4.0,78,0.00,,,0.00,Wunderground v.1.15,2013-02-28 12:10:00,
2013-02-28 07:20:00,59.1,52.6,29.99,NW,307,4.0,6.0,79,0.00,,,0.00,Wunderground v.1.15,2013-02-28 12:20:00,
2013-02-28 07:30:00,59.1,52.9,29.99,North,352,3.0,3.0,80,0.00,,,0.00,Wunderground v.1.15,2013-02-28 12:30:00,
2013-02-28 07:40:00,59.1,52.9,30.00,WNW,294,4.0,4.0,80,0.00,,,0.00,Wunderground v.1.15,2013-02-28 12:40:00,
2013-02-28 07:50:00,59.3,53.5,30.00,NW,319,3.0,3.0,81,0.00,,,0.00,Wunderground v.1.15,2013-02-28 12:50:00,
2013-02-28 08:00:00,59.8,54.0,30.00,NW,319,4.0,4.0,81,0.00,,,0.00,Wunderground v.1.15,2013-02-28 13:00:00,
2013-02-28 08:10:00,59.9,53.7,30.00,NW,323,4.0,4.0,80,0.00,,,0.00,Wunderground v.1.15,2013-02-28 13:10:00,
2013-02-28 08:20:00,59.8,53.6,30.00,WNW,294,4.0,4.0,80,0.00,,,0.00,Wunderground v.1.15,2013-02-28 13:20:00,
2013-02-28 08:30:00,59.8,53.6,30.01,NW,326,3.0,7.0,80,0.00,,,0.00,Wunderground v.1.15,2013-02-28 13:30:00,
2013-02-28 08:40:00,59.9,54.1,30.01,NW,307,6.0,6.0,81,0.00,,,0.00,Wunderground v.1.15,2013-02-28 13:40:00,
2013-02-28 08:50:00,60.6,54.4,30.01,WNW,301,5.0,5.0,80,0.00,,,0.00,Wunderground v.1.15,2013-02-28 13:50:00,
2013-02-28 09:00:00,60.9,54.0,30.01,NW,304,6.0,6.0,78,0.00,,,0.00,Wunderground v.1.15,2013-02-28 14:00:00,
2013-02-28 09:10:00,61.6,53.6,30.01,North,11,5.0,5.0,75,0.00,,,0.00,Wunderground v.1.15,2013-02-28 14:10:00,
2013-02-28 09:20:00,61.8,53.8,30.02,NW,308,5.0,9.0,75,0.00,,,0.00,Wunderground v.1.15,2013-02-28 14:20:00,
2013-02-28 09:30:00,62.1,53.3,30.02,NNW,335,7.0,7.0,73,0.00,,,0.00,Wunderground v.1.15,2013-02-28 14:30:00,
2013-02-28 09:40:00,62.0,53.2,30.02,NW,307,8.0,8.0,73,0.00,,,0.00,Wunderground v.1.15,2013-02-28 14:40:00,
2013-02-28 09:50:00,62.1,53.3,30.02,NW,320,6.0,6.0,73,0.00,,,0.00,Wunderground v.1.15,2013-02-28 14:50:00,
2013-02-28 10:00:00,62.6,53.8,30.02,NW,318,5.0,5.0,73,0.00,,,0.00,Wunderground v.1.15,2013-02-28 15:00:00,
2013-02-28 10:10:00,63.0,53.8,30.02,NW,315,5.0,10.0,72,0.00,,,0.00,Wunderground v.1.15,2013-02-28 15:10:00,
2013-02-28 10:20:00,63.4,53.0,30.02,NW,304,5.0,5.0,69,0.00,,,0.00,Wunderground v.1.15,2013-02-28 15:20:00,
2013-02-28 10:30:00,64.0,53.2,30.01,NW,311,5.0,7.0,68,0.00,,,0.00,Wunderground v.1.15,2013-02-28 15:30:00,
2013-02-28 10:40:00,64.2,52.2,30.02,NNW,329,6.0,6.0,65,0.00,,,0.00,Wunderground v.1.15,2013-02-28 15:40:00,
2013-02-28 10:50:00,64.6,51.7,30.02,North,354,6.0,7.0,63,0.00,,,0.00,Wunderground v.1.15,2013-02-28 15:50:00,
2013-02-28 11:00:00,65.4,52.5,30.02,NNE,18,5.0,7.0,63,0.00,,,0.00,Wunderground v.1.15,2013-02-28 16:00:00,
2013-02-28 11:10:00,65.6,51.8,30.02,WNW,301,6.0,6.0,61,0.00,,,0.00,Wunderground v.1.15,2013-02-28 16:10:00,
2013-02-28 11:20:00,65.7,51.0,30.02,North,350,6.0,6.0,59,0.00,,,0.00,Wunderground v.1.15,2013-02-28 16:20:00,
2013-02-28 11:30:00,66.7,52.8,30.01,NW,316,5.0,6.0,61,0.00,,,0.00,Wunderground v.1.15,2013-02-28 16:30:00,
2013-02-28 11:40:00,66.9,51.6,30.01,NW,307,6.0,7.0,58,0.00,,,0.00,Wunderground v.1.15,2013-02-28 16:40:00,
2013-02-28 11:50:00,67.0,51.7,30.01,NW,304,6.0,10.0,58,0.00,,,0.00,Wunderground v.1.15,2013-02-28 16:50:00,
2013-02-28 12:00:00,66.6,52.3,30.00,NW,311,6.0,8.0,60,0.00,,,0.00,Wunderground v.1.15,2013-02-28 17:00:00,
2013-02-28 12:10:00,66.3,51.5,30.00,SW,233,6.0,6.0,59,0.00,,,0.00,Wunderground v.1.15,2013-02-28 17:10:00,
2013-02-28 12:20:00,66.7,51.5,30.00,NW,320,5.0,7.0,58,0.00,,,0.00,Wunderground v.1.15,2013-02-28 17:20:00,
2013-02-28 12:30:00,66.5,51.3,30.00,NW,316,6.0,6.0,58,0.00,,,0.00,Wunderground v.1.15,2013-02-28 17:30:00,
2013-02-28 12:40:00,66.5,49.8,30.00,NNW,348,4.0,4.0,55,0.00,,,0.00,Wunderground v.1.15,2013-02-28 17:40:00,
2013-02-28 12:50:00,65.9,52.1,29.99,NW,304,5.0,5.0,61,0.00,,,0.00,Wunderground v.1.15,2013-02-28 17:50:00,
2013-02-28 13:00:00,65.4,51.6,29.98,NW,314,5.0,5.0,61,0.00,,,0.00,Wunderground v.1.15,2013-02-28 18:00:00,
2013-02-28 13:10:00,65.2,51.8,29.98,NNE,27,4.0,4.0,62,0.00,,,0.00,Wunderground v.1.15,2013-02-28 18:10:00,
2013-02-28 13:20:00,64.7,50.9,29.97,North,360,4.0,4.0,61,0.00,,,0.00,Wunderground v.1.15,2013-02-28 18:20:00,
2013-02-28 13:30:00,64.6,50.8,29.96,NNW,328,4.0,6.0,61,0.00,,,0.00,Wunderground v.1.15,2013-02-28 18:30:00,
2013-02-28 13:40:00,64.9,51.1,29.96,NW,312,3.0,5.0,61,0.00,,,0.00,Wunderground v.1.15,2013-02-28 18:40:00,
2013-02-28 13:50:00,65.1,50.9,29.95,NNW,344,3.0,4.0,60,0.00,,,0.00,Wunderground v.1.15,2013-02-28 18:50:00,
2013-02-28 14:00:00,65.0,50.8,29.96,NNW,334,4.0,6.0,60,0.00,,,0.00,Wunderground v.1.15,2013-02-28 19:00:00,
2013-02-28 14:10:00,64.9,50.2,29.95,WNW,295,4.0,4.0,59,0.00,,,0.00,Wunderground v.1.15,2013-02-28 19:10:00,
2013-02-28 14:20:00,65.0,50.8,29.95,WNW,288,3.0,3.0,60,0.00,,,0.00,Wunderground v.1.15,2013-02-28 19:20:00,
2013-02-28 14:30:00,65.0,50.3,29.95,NNW,329,4.0,4.0,59,0.00,,,0.00,Wunderground v.1.15,2013-02-28 19:30:00,
2013-02-28 14:40:00,65.2,51.0,29.95,West,267,3.0,3.0,60,0.00,,,0.00,Wunderground v.1.15,2013-02-28 19:40:00,
2013-02-28 14:50:00,65.5,50.8,29.95,NW,310,4.0,8.0,59,0.00,,,0.00,Wunderground v.1.15,2013-02-28 19:50:00,
2013-02-28 15:00:00,65.4,48.8,29.94,West,267,4.0,4.0,55,0.00,,,0.00,Wunderground v.1.15,2013-02-28 20:00:00,
2013-02-28 15:10:00,65.6,51.8,29.94,West,264,2.0,2.0,61,0.00,,,0.00,Wunderground v.1.15,2013-02-28 20:10:00,
2013-02-28 15:20:00,65.4,50.2,29.93,West,280,3.0,3.0,58,0.00,,,0.00,Wunderground v.1.15,2013-02-28 20:20:00,
2013-02-28 15:30:00,65.7,50.5,29.94,NNW,347,3.0,4.0,58,0.00,,,0.00,Wunderground v.1.15,2013-02-28 20:30:00,
2013-02-28 15:40:00,66.2,50.5,29.94,West,278,4.0,4.0,57,0.00,,,0.00,Wunderground v.1.15,2013-02-28 20:40:00,
2013-02-28 15:50:00,67.7,53.3,29.94,NNW,328,3.0,3.0,60,0.00,,,0.00,Wunderground v.1.15,2013-02-28 20:50:00,
2013-02-28 16:00:00,67.9,51.6,29.93,NNE,13,3.0,3.0,56,0.00,,,0.00,Wunderground v.1.15,2013-02-28 21:00:00,
2013-02-28 16:10:00,68.0,49.7,29.93,WNW,294,4.0,4.0,52,0.00,,,0.00,Wunderground v.1.15,2013-02-28 21:10:00,
2013-02-28 16:20:00,68.4,48.5,29.93,NNW,328,3.0,4.0,49,0.00,,,0.00,Wunderground v.1.15,2013-02-28 21:20:00,
2013-02-28 16:30:00,69.0,47.4,29.93,NW,314,3.0,3.0,46,0.00,,,0.00,Wunderground v.1.15,2013-02-28 21:30:00,
2013-02-28 16:40:00,68.1,47.7,29.93,WNW,283,2.0,2.0,48,0.00,,,0.00,Wunderground v.1.15,2013-02-28 21:40:00,
2013-02-28 16:50:00,68.2,47.8,29.94,WNW,284,2.0,3.0,48,0.00,,,0.00,Wunderground v.1.15,2013-02-28 21:50:00,
2013-02-28 17:00:00,67.4,49.7,29.94,WSW,257,4.0,4.0,53,0.00,,,0.00,Wunderground v.1.15,2013-02-28 22:00:00,
2013-02-28 17:10:00,67.3,50.1,29.94,NW,304,1.0,2.0,54,0.00,,,0.00,Wunderground v.1.15,2013-02-28 22:10:00,
2013-02-28 17:20:00,67.5,50.8,29.94,NW,316,2.0,2.0,55,0.00,,,0.00,Wunderground v.1.15,2013-02-28 22:20:00,
2013-02-28 17:30:00,67.5,51.2,29.94,NW,316,2.0,2.0,56,0.00,,,0.00,Wunderground v.1.15,2013-02-28 22:30:00,
2013-02-28 17:40:00,67.1,52.3,29.94,West,262,2.0,2.0,59,0.00,,,0.00,Wunderground v.1.15,2013-02-28 22:40:00,
2013-02-28 17:50:00,67.4,53.0,29.94,West,262,1.0,1.0,60,0.00,,,0.00,Wunderground v.1.15,2013-02-28 22:50:00,
2013-02-28 18:00:00,67.1,53.6,29.94,WNW,295,1.0,1.0,62,0.00,,,0.00,Wunderground v.1.15,2013-02-28 23:00:00,
2013-02-28 18:10:00,66.6,53.2,29.94,West,259,1.0,1.0,62,0.00,,,0.00,Wunderground v.1.15,2013-02-28 23:10:00,
2013-02-28 18:20:00,65.9,52.1,29.94,West,264,1.0,1.0,61,0.00,,,0.00,Wunderground v.1.15,2013-02-28 23:20:00,
2013-02-28 18:30:00,65.2,51.8,29.95,West,267,1.0,1.0,62,0.00,,,0.00,Wunderground v.1.15,2013-02-28 23:30:00,
2013-02-28 18:40:00,64.9,52.0,29.95,West,280,1.0,2.0,63,0.00,,,0.00,Wunderground v.1.15,2013-02-28 23:40:00,
2013-02-28 18:50:00,64.6,52.1,29.95,West,276,0.0,0.0,64,0.00,,,0.00,Wunderground v.1.15,2013-02-28 23:50:00,
2013-02-28 19:00:00,64.1,52.1,29.95,SW,219,0.0,0.0,65,0.00,,,0.00,Wunderground v.1.15,2013-03-01 00:00:00,
2013-02-28 19:10:00,63.9,52.7,29.95,SW,229,1.0,1.0,67,0.00,,,0.00,Wunderground v.1.15,2013-03-01 00:10:00,
2013-02-28 19:20:00,63.6,52.8,29.95,SSE,165,1.0,1.0,68,0.00,,,0.00,Wunderground v.1.15,2013-03-01 00:20:00,
2013-02-28 19:30:00,63.7,52.9,29.95,WSW,253,0.0,1.0,68,0.00,,,0.00,Wunderground v.1.15,2013-03-01 00:30:00,
2013-02-28 19:40:00,63.6,53.2,29.95,WSW,255,1.0,1.0,69,0.00,,,0.00,Wunderground v.1.15,2013-03-01 00:40:00,
2013-02-28 19:50:00,63.6,53.6,29.95,WSW,257,1.0,1.0,70,0.00,,,0.00,Wunderground v.1.15,2013-03-01 00:50:00,
2013-02-28 20:00:00,63.3,53.7,29.96,SW,228,1.0,1.0,71,0.00,,,0.00,Wunderground v.1.15,2013-03-01 01:00:00,
2013-02-28 20:10:00,63.2,54.0,29.95,SSW,208,1.0,1.0,72,0.00,,,0.00,Wunderground v.1.15,2013-03-01 01:10:00,
2013-02-28 20:20:00,63.1,53.9,29.95,SW,219,1.0,1.0,72,0.00,,,0.00,Wunderground v.1.15,2013-03-01 01:20:00,
2013-02-28 20:30:00,63.2,54.0,29.96,SW,217,1.0,1.0,72,0.00,,,0.00,Wunderground v.1.15,2013-03-01 01:30:00,
2013-02-28 20:40:00,63.0,53.8,29.96,SW,215,0.0,0.0,72,0.00,,,0.00,Wunderground v.1.15,2013-03-01 01:40:00,
2013-02-28 20:50:00,62.6,53.8,29.96,SW,226,0.0,0.0,73,0.00,,,0.00,Wunderground v.1.15,2013-03-01 01:50:00,
2013-02-28 21:00:00,62.2,53.8,29.96,SW,229,0.0,0.0,74,0.00,,,0.00,Wunderground v.1.15,2013-03-01 02:00:00,
2013-02-28 21:10:00,61.9,53.9,29.96,SW,225,0.0,0.0,75,0.00,,,0.00,Wunderground v.1.15,2013-03-01 02:10:00,
2013-02-28 21:20:00,62.3,53.9,29.96,WSW,252,1.0,1.0,74,0.00,,,0.00,Wunderground v.1.15,2013-03-01 02:20:00,
2013-02-28 21:30:00,62.2,53.8,29.96,WSW,253,1.0,1.0,74,0.00,,,0.00,Wunderground v.1.15,2013-03-01 02:30:00,
2013-02-28 21:40:00,62.3,53.9,29.97,SW,214,1.0,1.0,74,0.00,,,0.00,Wunderground v.1.15,2013-03-01 02:40:00,
2013-02-28 21:50:00,62.5,53.7,29.97,WSW,239,2.0,3.0,73,0.00,,,0.00,Wunderground v.1.15,2013-03-01 02:50:00,
2013-02-28 22:00:00,62.4,54.4,29.97,West,266,1.0,1.0,75,0.00,,,0.00,Wunderground v.1.15,2013-03-01 03:00:00,
2013-02-28 22:10:00,62.4,54.4,29.97,West,267,1.0,1.0,75,0.00,,,0.00,Wunderground v.1.15,2013-03-01 03:10:00,
2013-02-28 22:20:00,62.6,54.2,29.97,WSW,242,1.0,1.0,74,0.00,,,0.00,Wunderground v.1.15,2013-03-01 03:20:00,
2013-02-28 22:30:00,62.9,54.1,29.97,SW,225,2.0,2.0,73,0.00,,,0.00,Wunderground v.1.15,2013-03-01 03:30:00,
2013-02-28 22:40:00,63.3,53.7,29.97,WSW,249,2.0,2.0,71,0.00,,,0.00,Wunderground v.1.15,2013-03-01 03:40:00,
2013-02-28 22:50:00,63.5,53.5,29.97,WSW,252,1.0,1.0,70,0.00,,,0.00,Wunderground v.1.15,2013-03-01 03:50:00,
2013-02-28 23:00:00,63.6,52.8,29.97,WSW,255,2.0,3.0,68,0.00,,,0.00,Wunderground v.1.15,2013-03-01 04:00:00,
2013-02-28 23:10:00,63.9,52.7,29.96,SW,226,2.0,3.0,67,0.00,,,0.00,Wunderground v.1.15,2013-03-01 04:10:00,
2013-02-28 23:20:00,63.9,52.7,29.95,WSW,245,2.0,2.0,67,0.00,,,0.00,Wunderground v.1.15,2013-03-01 04:20:00,
2013-02-28 23:30:00,63.9,53.1,29.96,SW,233,2.0,2.0,68,0.00,,,0.00,Wunderground v.1.15,2013-03-01 04:30:00,
2013-02-28 23:40:00,63.7,53.3,29.96,WSW,243,2.0,4.0,69,0.00,,,0.00,Wunderground v.1.15,2013-03-01 04:40:00,
2013-02-28 23:50:00,63.6,53.6,29.95,West,263,2.0,2.0,70,0.00,,,0.00,Wunderground v.1.15,2013-03-01 04:50:00,